Wind_Speed
43 45 46 46 45 44 44 44 44 46 46 43 42 35 39 42 41 42 47 49 49 50 52 52 51 51 52 55 58 56 59 61 61 60 59 58 57 58 59 60 61 60 61 60
47 48 51 48 47 45 46 47 49 49 50 43 43 41 42 44 46 46 49 53 53 53 53 53 56 57 55 58 58 60 61 65 68 69 67 66 64 63 65 64 64 64 65 64
52 53 51 49 43 43 42 43 44 49 49 47 44 48 50 51 49 51 52 51 53 56 56 60 56 57 62 59 61 64 62 68 71 74 77 77 75 73 71 72 73 72 70 68
45 49 49 47 47 44 47 53 49 50 52 54 57 54 52 57 56 58 58 60 62 64 66 67 67 69 73 76 78 75 75 76 77 80 81 83 87 86 84 83 81 80 80 78
45 46 48 51 53 52 53 51 52 52 56 55 56 59 55 63 59 61 64 66 69 71 72 76 76 77 77 79 81 82 82 85 87 82 85 86 87 90 93 94 93 91 90 88
54 55 56 59 60 59 59 63 65 62 62 58 60 62 57 62 67 70 71 73 76 78 78 79 83 84 82 82 86 88 92 90 94 91 92 96 96 94 95 95 95 98 98 98
59 57 55 51 56 59 61 61 67 69 71 66 66 64 65 70 73 74 79 84 82 81 84 84 84 88 90 90 93 94 100 98 94 102 98 97 103 105 102 102 104 102 100 100
62 62 66 66 65 70 69 72 75 75 71 70 73 67 68 74 77 83 85 84 87 89 90 91 94 95 94 95 99 101 104 107 103 100 111 110 109 109 112 112 111 112 113 112
69 65 68 71 76 78 78 82 82 86 84 78 73 76 79 83 86 93 96 97 99 98 98 98 99 98 98 101 103 103 107 111 113 111 114 118 112 117 118 120 120 120 121 119
80 73 77 76 81 84 89 90 91 96 98 94 87 91 98 102 108 112 111 111 108 105 106 105 103 101 102 104 105 107 109 111 114 116 117 117 119 119 126 126 129 131 128 129
85 80 80 85 90 92 93 98 98 104 104 111 109 104 110 115 120 120 119 118 115 111 111 108 106 107 109 111 113 116 120 121 116 113 114 117 116 118 123 130 134 135 137 137
89 90 89 92 96 102 104 103 105 109 113 117 122 114 120 126 125 123 123 123 120 120 118 115 115 115 118 122 125 126 124 120 117 116 115 115 116 116 118 122 128 132 135 141
96 98 96 100 105 109 109 110 113 117 121 124 133 131 133 129 131 135 129 128 125 127 126 125 125 127 130 130 128 125 121 117 116 116 114 114 116 118 119 120 120 123 127 132
101 105 106 108 113 116 119 116 120 124 128 135 136 139 129 133 136 131 132 131 133 134 133 132 129 129 125 121 121 119 115 111 109 109 109 110 110 112 116 119 120 120 121 122
109 112 114 117 120 120 121 121 127 134 139 145 134 137 130 132 132 134 137 138 139 137 133 131 128 123 116 111 108 106 104 102 101 100 101 102 104 106 110 113 115 117 118 119
117 122 124 125 129 131 129 125 132 139 146 150 144 139 139 138 140 141 142 142 134 131 125 121 118 113 107 103 99 97 96 95 94 94 94 94 95 97 99 101 104 107 111 113
127 132 130 131 133 136 130 134 143 147 149 146 143 142 143 143 142 138 136 128 123 117 113 110 107 104 101 99 97 96 95 95 95 96 96 96 96 96 97 97 98 101 103 105
131 134 139 141 140 141 136 140 147 151 148 146 147 147 148 138 135 130 126 114 110 108 106 103 101 97 95 94 93 93 92 92 93 93 93 92 91 91 92 92 94 95 97 99
144 142 144 148 148 148 145 149 151 148 146 146 147 143 135 129 117 110 108 103 102 100 101 99 98 96 95 94 92 90 88 87 87 89 90 90 90 90 90 90 91 93 93 94
151 154 156 157 157 156 141 144 145 151 144 138 130 127 119 111 106 103 101 102 100 100 100 99 97 96 93 93 91 89 88 88 89 91 91 90 89 89 89 90 92 92 91 92
152 156 161 160 159 154 147 147 150 141 136 125 119 111 108 105 103 101 101 102 103 102 101 99 96 95 94 94 92 90 88 87 87 88 89 89 89 89 89 89 91 89 89 87
158 158 156 158 156 155 149 151 144 138 124 116 108 104 102 101 101 102 102 103 103 102 100 98 97 96 94 92 90 88 86 85 85 84 83 83 83 83 83 85 83 83 81 81
161 159 159 155 156 153 141 137 132 121 118 112 107 102 103 102 100 102 103 100 99 98 95 94 93 91 89 87 87 86 85 84 84 85 84 84 84 83 84 82 81 81 81 81
158 151 146 147 142 133 129 122 119 117 114 111 108 104 103 103 100 98 97 96 96 93 90 89 87 86 85 84 84 83 83 84 85 84 83 82 81 80 81 77 76 75 75 75
147 137 134 134 128 123 119 119 118 116 114 112 108 104 101 100 96 97 95 93 92 91 88 86 83 82 82 82 82 82 82 81 80 80 79 78 78 78 77 75 76 73 73 72
135 125 123 121 120 121 117 115 114 113 111 109 108 105 102 100 98 95 93 92 90 88 86 84 84 83 81 80 80 77 77 77 78 77 76 75 75 75 73 73 75 72 70 70
Wind_Direction
264 267 269 272 273 274 274 274 273 276 278 274 274 275 271 272 275 276 278 280 281 281 281 282 281 279 278 279 276 269 267 268 271 268 268 267 267 268 269 270 271 271 271 273
268 271 271 274 275 276 271 271 271 273 273 268 269 267 266 271 267 268 272 271 273 278 279 284 280 279 284 283 279 276 273 269 267 265 263 264 263 263 266 266 267 269 269 268
275 276 276 277 272 269 267 269 270 264 264 256 260 276 268 264 266 268 270 267 265 273 274 276 279 275 280 281 280 276 274 277 278 269 263 260 260 260 260 263 265 267 266 265
276 278 277 271 278 276 272 271 270 263 259 259 265 259 271 268 266 268 271 271 272 278 282 282 280 283 286 286 286 282 277 276 275 273 270 265 259 258 259 259 259 261 263 265
276 272 283 276 278 278 280 281 281 280 271 271 277 268 266 268 271 273 274 274 277 276 278 279 278 280 281 282 282 277 275 276 278 272 266 265 263 263 261 260 258 258 260 259
280 281 286 284 287 286 287 288 286 283 284 275 277 279 272 270 269 272 277 277 279 279 277 278 278 280 282 283 284 281 276 275 268 268 267 265 263 263 262 260 258 257 257 256
281 280 291 290 289 294 300 301 298 293 291 288 285 281 283 285 283 281 280 282 283 284 287 288 283 282 280 281 282 280 278 277 272 268 267 261 260 259 259 259 259 255 254 254
279 284 287 291 302 301 303 302 301 297 292 286 287 284 292 291 290 293 292 291 292 294 292 291 290 289 288 284 279 277 277 277 274 267 265 267 260 257 257 257 257 256 255 255
284 289 295 289 296 302 301 303 302 304 304 299 297 295 301 303 299 302 298 297 298 298 297 295 290 287 285 283 281 280 277 275 274 269 267 267 263 257 255 253 254 254 253 252
285 289 289 293 292 296 300 303 305 306 309 310 309 309 309 306 305 304 302 302 302 299 298 295 291 287 286 285 285 283 281 279 277 274 270 266 266 261 257 254 253 252 252 251
284 292 291 294 296 299 300 302 304 306 311 309 310 311 309 304 302 301 302 302 302 299 296 294 292 290 290 289 288 287 286 284 279 275 271 269 267 264 260 259 257 255 253 252
286 289 298 297 299 299 299 304 306 306 307 308 308 308 306 302 301 301 301 301 301 300 298 296 294 292 290 288 286 286 284 282 279 276 274 272 270 268 265 263 261 260 260 257
292 296 295 298 294 298 302 304 306 307 306 305 303 304 299 299 300 299 299 300 298 299 298 296 292 289 287 287 286 285 284 282 280 278 275 273 271 269 268 266 264 262 261 260
290 297 296 295 295 299 302 301 305 304 304 301 301 298 300 299 297 299 299 298 298 297 295 291 288 287 287 286 285 283 281 280 278 277 276 274 272 270 268 268 267 266 264 262
294 295 297 298 296 295 298 302 302 299 298 299 300 298 298 297 298 297 297 297 296 295 294 292 291 290 288 287 285 284 283 282 280 278 275 273 272 271 269 268 267 266 266 265
293 295 296 296 297 297 295 298 299 296 297 298 298 301 298 298 298 298 297 296 295 294 291 290 289 289 289 288 287 286 285 283 282 281 280 278 275 273 271 269 269 268 268 267
293 293 291 292 292 292 295 291 291 295 297 295 297 296 297 295 296 296 295 295 293 291 291 290 290 290 290 291 290 290 288 287 286 284 282 280 278 276 274 272 270 268 267 267
289 288 284 288 292 293 293 293 293 294 296 296 296 295 294 295 296 296 294 293 291 289 289 289 288 289 288 287 286 285 284 284 283 282 280 279 278 276 275 274 272 270 268 267
288 290 289 288 290 293 293 291 293 293 292 294 293 292 295 294 294 295 292 292 292 290 289 290 290 291 290 289 289 287 286 284 282 281 280 280 279 278 276 275 273 272 270 270
285 286 290 291 290 292 292 292 293 292 294 290 291 293 294 294 294 294 294 291 292 292 291 291 290 290 291 291 290 289 287 286 285 284 283 282 281 280 278 277 275 274 273 272
286 287 289 289 290 293 292 291 293 293 290 291 292 292 292 294 294 294 293 293 292 292 292 291 291 292 291 291 290 288 286 285 284 283 283 283 282 280 279 277 276 277 277 276
284 286 288 287 290 291 290 291 291 292 291 291 291 291 293 292 292 291 290 290 291 291 290 292 292 292 291 291 290 289 288 287 286 285 285 284 283 281 280 277 278 277 276 275
283 284 287 288 288 290 289 290 289 289 290 292 292 292 291 289 289 289 288 289 289 289 289 289 290 290 290 290 289 290 289 288 288 287 285 284 282 281 280 279 279 278 277 276
284 287 288 287 287 289 288 288 288 289 291 291 291 289 289 289 288 288 289 288 288 288 290 290 290 290 290 289 289 289 288 288 287 286 285 284 284 283 282 283 281 279 278 278
283 285 285 285 286 286 287 287 289 290 291 291 291 291 290 290 292 291 291 291 291 292 292 291 290 290 290 290 290 290 290 289 288 287 286 286 285 284 284 284 282 281 280 279
282 284 285 284 283 283 284 286 288 290 290 291 291 291 292 292 291 291 292 292 292 291 291 292 292 292 293 293 293 291 290 288 287 286 286 285 284 283 284 283 283 282 281 281
Height
10745 10746 10742 10743 10745 10745 10744 10743 10743 10739 10739 10743 10740 10739 10733 10730 10731 10728 10723 10718 10716 10714 10713 10713 10713 10713 10714 10713 10712 10712 10710 10708 10707 10706 10703 10702 10701 10699 10697 10696 10694 10691 10690 10688
10736 10737 10732 10733 10733 10733 10731 10731 10730 10731 10728 10730 10729 10729 10722 10720 10719 10716 10712 10709 10706 10704 10700 10698 10698 10698 10698 10698 10698 10697 10696 10695 10692 10690 10690 10688 10684 10683 10681 10681 10680 10678 10677 10675
10726 10723 10722 10720 10720 10719 10719 10717 10716 10716 10714 10716 10717 10717 10710 10706 10703 10699 10697 10694 10691 10689 10685 10682 10681 10683 10683 10682 10682 10680 10677 10675 10673 10671 10670 10670 10668 10665 10664 10664 10663 10662 10660 10660
10715 10709 10710 10709 10707 10707 10705 10701 10701 10700 10701 10702 10700 10704 10700 10690 10687 10684 10679 10676 10672 10669 10667 10666 10665 10663 10660 10659 10657 10656 10655 10655 10653 10650 10648 10647 10646 10644 10643 10642 10642 10642 10641 10642
10702 10700 10696 10695 10695 10693 10690 10688 10686 10685 10686 10689 10683 10683 10687 10677 10672 10668 10662 10658 10655 10650 10648 10647 10645 10642 10641 10635 10634 10630 10628 10626 10624 10623 10623 10621 10620 10620 10618 10619 10618 10618 10618 10617
10687 10687 10683 10680 10678 10675 10674 10672 10669 10668 10666 10672 10665 10662 10670 10660 10651 10645 10640 10636 10631 10626 10623 10619 10617 10614 10612 10609 10606 10604 10602 10601 10599 10597 10596 10595 10594 10593 10592 10590 10589 10590 10591 10591
10672 10670 10667 10664 10663 10659 10657 10654 10649 10650 10648 10650 10648 10649 10649 10637 10629 10621 10614 10611 10605 10601 10597 10592 10588 10584 10582 10580 10577 10573 10569 10566 10564 10564 10562 10564 10563 10563 10563 10561 10560 10560 10560 10560
10656 10653 10648 10646 10643 10639 10639 10635 10628 10624 10628 10629 10626 10631 10628 10615 10605 10597 10590 10584 10578 10574 10569 10562 10557 10553 10550 10547 10544 10541 10538 10532 10530 10528 10527 10526 10526 10526 10526 10527 10527 10526 10527 10528
10638 10636 10630 10627 10622 10620 10617 10612 10606 10597 10598 10597 10602 10599 10596 10585 10576 10568 10561 10554 10548 10544 10541 10535 10531 10525 10518 10513 10508 10504 10502 10497 10494 10491 10488 10486 10486 10486 10486 10487 10488 10489 10489 10490
10620 10615 10613 10607 10603 10600 10592 10588 10580 10575 10566 10566 10576 10573 10567 10559 10548 10539 10531 10527 10522 10517 10512 10506 10500 10493 10486 10479 10474 10469 10464 10458 10454 10450 10448 10448 10445 10443 10443 10445 10445 10446 10448 10450
10596 10591 10592 10586 10581 10576 10568 10564 10555 10545 10541 10531 10534 10551 10545 10526 10516 10508 10502 10496 10492 10487 10479 10472 10465 10457 10450 10443 10436 10430 10423 10417 10413 10410 10408 10405 10403 10402 10402 10402 10404 10405 10406 10408
10569 10563 10566 10558 10554 10549 10542 10537 10526 10516 10515 10508 10500 10520 10509 10495 10483 10474 10469 10464 10457 10451 10443 10436 10430 10422 10413 10406 10397 10389 10381 10376 10373 10369 10367 10366 10364 10363 10362 10360 10362 10363 10365 10367
10544 10539 10540 10538 10526 10519 10514 10512 10503 10491 10489 10488 10472 10483 10478 10466 10451 10440 10440 10434 10423 10414 10408 10401 10393 10384 10373 10363 10354 10345 10341 10337 10333 10328 10326 10324 10322 10320 10318 10317 10318 10319 10320 10322
10519 10515 10517 10511 10500 10492 10488 10487 10480 10467 10461 10452 10460 10441 10447 10430 10416 10410 10404 10394 10385 10380 10373 10363 10353 10343 10334 10326 10317 10307 10303 10302 10296 10292 10287 10284 10283 10281 10278 10275 10275 10276 10278 10281
10493 10488 10486 10479 10473 10466 10464 10471 10456 10442 10434 10419 10435 10407 10419 10398 10383 10378 10372 10362 10351 10338 10327 10316 10306 10298 10291 10285 10277 10270 10266 10263 10260 10257 10253 10250 10247 10244 10240 10239 10238 10238 10237 10238
10465 10455 10451 10447 10438 10436 10441 10454 10434 10417 10408 10391 10378 10381 10364 10360 10349 10344 10335 10324 10315 10303 10290 10278 10269 10262 10256 10250 10244 10239 10234 10230 10226 10222 10217 10214 10210 10207 10205 10204 10202 10200 10199 10200
10432 10427 10422 10423 10419 10411 10418 10429 10401 10392 10383 10366 10352 10343 10334 10326 10322 10311 10297 10290 10278 10264 10253 10242 10235 10230 10224 10219 10214 10209 10203 10198 10193 10188 10182 10179 10175 10172 10169 10168 10167 10165 10164 10163
10414 10407 10394 10390 10389 10384 10398 10384 10370 10358 10352 10333 10318 10307 10295 10295 10286 10277 10260 10253 10241 10231 10223 10216 10210 10204 10199 10196 10192 10187 10181 10174 10165 10159 10152 10147 10144 10140 10136 10134 10131 10128 10128 10126
10384 10373 10360 10355 10355 10354 10368 10347 10339 10323 10321 10310 10284 10272 10273 10262 10256 10248 10228 10222 10209 10199 10191 10187 10180 10175 10171 10166 10161 10156 10150 10143 10136 10127 10121 10117 10115 10111 10108 10104 10100 10095 10096 10093
10352 10341 10329 10326 10314 10316 10331 10314 10300 10280 10283 10267 10255 10249 10241 10231 10224 10215 10201 10190 10180 10173 10166 10160 10152 10145 10141 10135 10130 10126 10119 10113 10104 10096 10090 10086 10084 10081 10077 10072 10066 10065 10066 10066
10323 10309 10298 10291 10271 10279 10286 10268 10259 10246 10237 10237 10230 10222 10210 10205 10195 10186 10172 10160 10150 10144 10137 10130 10124 10118 10112 10106 10101 10095 10090 10086 10079 10071 10065 10059 10055 10051 10047 10042 10037 10038 10036 10038
10290 10281 10276 10262 10254 10244 10245 10226 10220 10209 10202 10198 10200 10194 10189 10181 10168 10154 10146 10137 10129 10120 10110 10102 10094 10087 10082 10075 10069 10064 10060 10055 10050 10044 10039 10034 10028 10023 10020 10014 10012 10010 10011 10009
10252 10250 10244 10242 10222 10216 10203 10192 10186 10178 10166 10168 10167 10166 10158 10151 10143 10129 10119 10114 10106 10097 10090 10079 10070 10063 10057 10052 10043 10038 10032 10026 10020 10016 10010 10005 10000 9995 9990 9989 9987 9984 9981 9980
10223 10219 10214 10197 10188 10177 10165 10161 10154 10145 10142 10138 10136 10134 10126 10117 10111 10104 10097 10088 10077 10068 10061 10053 10045 10038 10032 10027 10020 10014 10008 10001 9994 9988 9982 9978 9974 9970 9964 9963 9960 9957 9954 9951
10195 10189 10181 10167 10158 10141 10138 10130 10124 10117 10108 10101 10096 10095 10092 10081 10079 10068 10066 10056 10049 10040 10033 10026 10019 10013 10007 10002 9996 9990 9983 9976 9970 9964 9959 9954 9949 9944 9940 9936 9931 9932 9928 9928
10162 10160 10144 10132 10124 10111 10116 10112 10101 10089 10081 10073 10063 10058 10054 10050 10045 10041 10036 10027 10018 10012 10005 9999 9991 9986 9982 9977 9970 9965 9958 9952 9945 9939 9935 9930 9925 9919 9917 9913 9904 9904 9905 9901